Content
SEND FEEDBACK

United States of America Flag

KALIHIWAI, HAWAII


Home > North America > United States > Hawaii
Elevation: 320 feet     Latitude: 22 13N     Longitude: 159 25W

WEATHER
 
SELECT A DAY
Number of Records: 240,932;   Date Range: 1/1/95 - 3/22/16
 
SHARE

PRINT THIS DATA

[ ← Previous Day ]
WEATHER ALMANAC - JANUARY 30, 2013
[ Next Day → ]
[ °C ]   °F
Weather ElementAverageHighLow
Temperature69.9 °F77 °F (12:53 pm)64 °F (1:53 am)
Dewpoint63.5 °F66.9 °F (9:53 am)60.1 °F (1:53 am)
Humidity80.3 %92 % (7:53 am)71 % (10:53 am)
Barometer30.06 in30.10 in (9:53 am)30.03 in (3:53 am)
Wind Speed8.4 mph15 mph (3:53 pm)
Weather ElementAverage
Visibility10 mi
Wind DirectionSSW (189.7 °)

Weather ElementTotal
Precipitation0.01 in
Cooling Degree Days5.5 (Base 65)
Growing Degree Days20.5 (Base 50)
Averaged from 29 records on January 30, 2013
WEATHER CONDITIONS BREAKOUT
WIND DIRECTION BREAKOUT
WEATHER BY HOUR - JANUARY 30, 2013
[ °C ]   °F
Local TimeTemperatureDewpointHumidityBarometerVisibilityWind DirectionWind SpeedGust SpeedPrecipitationEventsConditions
12:44 AM66.2 °F60.8 °F83 %30.05 in10.0 miWest (280°)5.8 mphScattered Clouds
12:53 AM65.5 °F61.0 °F85 %30.04 in10.0 miWNW (290°)5.8 mphPartly Cloudy
1:53 AM64.0 °F60.1 °F87 %30.04 in10.0 miWest (280°)8.1 mphClear
2:53 AM64.0 °F60.1 °F87 %30.04 in10.0 miWNW (290°)5.8 mphPartly Cloudy
3:53 AM64.4 °F60.1 °F86 %30.03 in10.0 miNNW (340°)5.8 mphScattered Clouds
4:53 AM67.1 °F62.1 °F84 %30.03 in10.0 miWest (280°)4.6 mph0.01 inMostly Cloudy
5:49 AM66.2 °F62.6 °F88 %30.03 in10.0 miWNW (290°)4.6 mph0.00 inRainLight Rain
5:53 AM66.0 °F62.1 °F87 %30.03 in10.0 miWNW (290°)5.8 mph0.00 inOvercast
6:48 AM66.2 °F62.6 °F88 %30.05 in10.0 miWest (280°)5.8 mphMostly Cloudy
6:53 AM65.8 °F62.1 °F88 %30.04 in10.0 miWest (280°)5.8 mphMostly Cloudy
7:53 AM64.4 °F62.1 °F92 %30.06 in10.0 miWNW (300°)4.6 mphPartly Cloudy
8:53 AM64.4 °F62.1 °F92 %30.09 in10.0 miNorth (360°)6.9 mphClear
9:53 AM75.0 °F66.9 °F76 %30.10 in10.0 miNNE (20°)8.1 mphScattered Clouds
10:53 AM75.9 °F66.0 °F71 %30.10 in10.0 miNE (50°)9.2 mphScattered Clouds
11:53 AM75.9 °F66.9 °F74 %30.08 in10.0 miENE (60°)9.2 mphClear
12:53 PM77.0 °F66.9 °F71 %30.06 in10.0 miNE (50°)10.4 mphScattered Clouds
1:53 PM75.9 °F66.0 °F71 %30.04 in10.0 miNE (50°)9.2 mphClear
2:53 PM75.9 °F66.0 °F71 %30.03 in10.0 miNE (50°)12.7 mphClear
3:53 PM75.0 °F64.9 °F71 %30.03 in10.0 miNE (40°)15.0 mphClear
4:53 PM75.0 °F64.9 °F71 %30.03 in10.0 miNNE (30°)13.8 mphClear
5:53 PM73.0 °F64.0 °F73 %30.04 in10.0 miNNE (20°)12.7 mphClear
6:53 PM71.1 °F64.0 °F78 %30.05 in10.0 miNorth (360°)8.1 mphPartly Cloudy
7:53 PM70.0 °F63.0 °F78 %30.07 in10.0 miNorth (360°)6.9 mphClear
8:53 PM70.0 °F64.0 °F81 %30.09 in10.0 miNorth (360°)5.8 mphPartly Cloudy
9:53 PM70.0 °F64.0 °F81 %30.09 in10.0 miNorth (360°)8.1 mphScattered Clouds
10:14 PM69.8 °F64.4 °F83 %30.10 in10.0 miNorth (10°)5.8 mphMostly Cloudy
10:32 PM71.6 °F64.4 °F78 %30.10 in10.0 miNE (40°)12.7 mphScattered Clouds
10:53 PM71.1 °F64.0 °F78 %30.10 in10.0 miNE (40°)12.7 mphScattered Clouds
11:53 PM71.1 °F63.0 °F75 %30.09 in10.0 miNE (40°)12.7 mphPartly Cloudy
Hourly data recorded from PHLI, located miles away from Kalihiwai, Hawaii




STORIES FROM OUR PARTNERS